Atlanta Fulton, GA

10:47 PM EDT on October 23, 2017 (GMT -0400)
Fulton County-Brown

Weather History for KFTY - September, 2013

Change the Weather History Date:

Wednesday, September 18, 2013

  Actual Average Record
Temperature  
Mean Temperature 70 °F 72 °F  
Max Temperature 77 °F 83 °F 93 °F (2010)
Min Temperature 62 °F 62 °F 54 °F (1999)
Degree Days  
Heating Degree Days 0 0  
Month to date heating degree days 0 0  
Since 1 July heating degree days 0 0  
Cooling Degree Days 5 7  
Month to date cooling degree days 197 175  
Year to date cooling degree days 1518 1612  
Growing Degree Days 20 (Base 50)    
Moisture  
Dew Point 59 °F    
Average Humidity 76    
Maximum Humidity 93    
Minimum Humidity 58    
Precipitation  
Precipitation 0.00 in 0.12 in 3.07 in (1971)
Month to date precipitation 0.71 2.28  
Year to date precipitation 33.89 37.70  
Sea Level Pressure  
Sea Level Pressure 30.18 in    
Wind  
Wind Speed 5 mph (ENE)    
Max Wind Speed 14 mph    
Max Gust Speed 17 mph    
Visibility 10 miles    
Events      
T = Trace of Precipitation, MM = Missing Value Source: NWS Daily Summary

Daily Weather History Graph

Daily Weather History Graph

Search for Another Location

Airport or City:

Trip Planner

Search our weather history database for the weather conditions in past years. The results will help you decide how hot, cold, wet, or windy it might be!

Date:

Astronomy

Sep. 18, 2013 Rise Set
Actual Time 7:23 AM EDT 7:40 PM EDT
Civil Twilight 6:58 AM EDT 8:04 PM EDT
Nautical Twilight 6:29 AM EDT 8:34 PM EDT
Astronomical Twilight 5:59 AM EDT 9:03 PM EDT
Moon 7:03 PM EDT (9/18) 6:25 AM EDT (9/18)
Length of Visible Light 13h 06m
Length of Day
12h 16m
Waxing Gibbous, 99% of the Moon is Illuminated
Sep 18
Waxing Gibbous
Sep 19
Full
Sep 26
Last Quarter
Oct 4
New
Oct 11
First Quarter

Hourly Weather History & Observations

Time (EDT) Temp. Dew Point Humidity Pressure Visibility Wind Dir Wind Speed Gust Speed Precip Events Conditions
12:53 AM 68.0 °F 57.9 °F 70% 30.19 in 10.0 mi ENE 4.6 mph - N/A   Scattered Clouds
1:53 AM 69.1 °F 57.9 °F 68% 30.18 in 10.0 mi ENE 6.9 mph - N/A   Overcast
2:53 AM 69.1 °F 57.9 °F 68% 30.18 in 10.0 mi NE 10.4 mph - N/A   Overcast
3:53 AM 68.0 °F 57.9 °F 70% 30.18 in 10.0 mi ENE 5.8 mph - N/A   Overcast
4:53 AM 68.0 °F 59.0 °F 73% 30.17 in 10.0 mi ENE 5.8 mph - N/A   Overcast
5:53 AM 66.9 °F 57.9 °F 73% 30.19 in 10.0 mi NE 4.6 mph - N/A   Overcast
6:53 AM 66.0 °F 57.9 °F 75% 30.19 in 10.0 mi ENE 4.6 mph - N/A   Overcast
7:53 AM 66.0 °F 57.9 °F 75% 30.20 in 10.0 mi ENE 4.6 mph - N/A   Overcast
8:53 AM 66.9 °F 57.0 °F 70% 30.22 in 10.0 mi ENE 8.1 mph - N/A   Overcast
9:53 AM 69.1 °F 57.0 °F 65% 30.23 in 10.0 mi ENE 11.5 mph - N/A   Mostly Cloudy
10:53 AM 70.0 °F 57.9 °F 65% 30.24 in 10.0 mi ENE 6.9 mph - N/A   Overcast
11:53 AM 71.1 °F 59.0 °F 66% 30.23 in 10.0 mi ENE 9.2 mph - N/A   Overcast
12:53 PM 72.0 °F 60.1 °F 66% 30.22 in 10.0 mi Variable 3.5 mph - N/A   Overcast
1:53 PM 75.0 °F 59.0 °F 57% 30.21 in 10.0 mi SE 9.2 mph - N/A   Overcast
2:53 PM 75.9 °F 59.0 °F 56% 30.18 in 10.0 mi SE 6.9 mph - N/A   Overcast
3:53 PM 75.9 °F 59.0 °F 56% 30.16 in 10.0 mi ESE 5.8 mph - N/A   Overcast
4:53 PM 75.9 °F 59.0 °F 56% 30.15 in 10.0 mi East 4.6 mph - N/A   Overcast
5:53 PM 75.9 °F 61.0 °F 60% 30.14 in 10.0 mi East 4.6 mph - N/A   Scattered Clouds
6:53 PM 75.0 °F 61.0 °F 62% 30.13 in 10.0 mi NE 4.6 mph - N/A   Clear
7:53 PM 70.0 °F 63.0 °F 78% 30.14 in 10.0 mi Calm Calm - N/A   Clear
8:53 PM 66.0 °F 63.0 °F 90% 30.15 in 10.0 mi Calm Calm - N/A   Clear
9:53 PM 64.9 °F 63.0 °F 93% 30.17 in 10.0 mi Calm Calm - N/A   Clear
10:53 PM 64.0 °F 62.1 °F 93% 30.17 in 10.0 mi Calm Calm - N/A   Clear
11:53 PM 64.0 °F 61.0 °F 90% 30.17 in 10.0 mi Calm Calm - N/A   Clear